Date String (YYYY-MM-DD hh:mm:ss) UTC,Instrument flags,absolute air pressure of the measurement (hPa),sample flow rate (lpm),inlet stack bypass flow (lpm),air temperature of the measurement (°C),ambient temperature measured by the external sensor (°C),aerosol sample conditioner tube jacket temperature (°C),OPC LED temperature (°C),internal box temperature (°C),relative humidity of the measurement (%),span deviation,mass concentration of particles derived from Lorenz-Mie calculation of OPC scattering (μg/m³),mass concentration of particles derived from Lorenz-Mie calculation of OPC scattering (μg/m³),mass concentration of particles derived from Lorenz-Mie calculation of OPC scattering (μg/m³)
DateTimeUTC,F1_M11,P_M11,Q1_M11,Q2_M11,T1_M11,T2_M11,T3_M11,T4_M11,T5_M11,U1_M11,ZSPAN_M11,X0_M11,X2_M11,X1_M11
2023-06-28 12:00:00,SystemResetWarning,0830.0,5.00,000.00,030.0,028.6,000.0,038.5,031.6,28.0,0002.6,0013.21,0008.38,0007.14
2023-06-28 12:01:00,SystemResetWarning,0830.0,5.00,000.00,030.1,028.6,000.0,038.5,031.6,28.2,0002.6,0013.37,0008.33,0007.09
2023-06-28 12:02:00,SystemResetWarning,0830.0,5.00,000.00,030.1,028.6,000.0,038.6,031.6,28.3,0001.9,0014.30,0008.26,0007.05
2023-06-28 12:03:00,SystemResetWarning,0830.0,5.00,000.00,030.1,028.7,000.0,038.6,031.7,28.1,0002.2,0015.25,0008.23,0007.02
2023-06-28 12:04:00,SystemResetWarning,0830.0,5.00,000.00,030.1,028.7,000.0,038.6,031.7,27.9,0001.9,0015.51,0008.22,0006.99
2023-06-28 12:05:00,SystemResetWarning,0830.0,5.00,000.00,030.2,028.7,000.0,038.6,031.7,27.7,0001.5,0016.05,0008.21,0006.97
2023-06-28 12:06:00,SystemResetWarning,0830.1,4.99,000.00,030.2,028.1,000.0,038.6,031.7,27.3,0000.9,0016.13,0008.21,0006.94
2023-06-28 12:07:00,SystemResetWarning,0830.1,5.00,000.00,030.2,025.8,000.0,038.5,031.7,27.1,0000.6,0016.19,0008.22,0006.92
2023-06-28 12:08:00,SystemResetWarning,0830.0,5.02,000.00,030.1,024.9,000.0,038.5,031.6,27.2,0000.4,0016.64,0008.29,0006.92
2023-06-28 12:09:00,SystemResetWarning,0830.1,4.99,000.00,030.0,025.1,000.0,038.5,031.3,27.1,0000.4,0017.44,0008.30,0006.91
2023-06-28 12:10:00,SystemResetWarning,0830.0,5.00,000.00,029.9,025.5,000.0,038.5,031.1,27.3,0000.6,0018.09,0008.33,0006.91
2023-06-28 12:11:00,SystemResetWarning,0830.0,5.00,000.00,029.8,026.0,000.0,038.5,031.1,27.3,0001.0,0018.47,0008.38,0006.92
2023-06-28 12:12:00,SystemResetWarning,0830.1,5.00,000.00,029.8,026.4,000.0,038.5,031.1,27.3,0000.1,0019.13,0008.41,0006.93
2023-06-28 12:13:00,SystemResetWarning,0830.1,4.98,000.00,029.8,026.7,000.0,038.4,031.1,27.3,0000.0,0018.65,0008.39,0006.93
2023-06-28 12:14:00,SystemResetWarning,0830.1,5.00,000.00,029.8,027.1,000.0,038.4,031.2,27.4,0000.0,0017.11,0008.38,0006.93
2023-06-28 12:15:00,SystemResetWarning,0830.1,5.01,000.00,029.8,027.3,000.0,038.4,031.2,27.6,0000.0,0017.11,0008.36,0006.93
2023-06-28 12:16:00,SystemResetWarning,0830.1,5.01,000.00,029.8,027.5,000.0,038.4,031.2,27.6,0000.0,0016.82,0008.34,0006.92
2023-06-28 12:17:00,SystemResetWarning,0830.1,4.99,000.00,029.8,027.7,000.0,038.4,031.2,27.4,0000.0,0017.70,0008.30,0006.90
2023-06-28 12:18:00,SystemResetWarning,0830.1,4.99,000.00,029.8,027.8,000.0,038.4,031.2,27.4,0000.0,0018.23,0008.22,0006.88
2023-06-28 12:19:00,SystemResetWarning,0830.1,5.00,000.00,029.8,027.9,000.0,038.4,031.3,27.6,0000.0,0018.45,0008.13,0006.84
2023-06-28 12:20:00,SystemResetWarning,0830.1,5.01,000.00,029.8,028.0,000.0,038.4,031.3,27.6,0000.0,0017.36,0008.02,0006.82
2023-06-28 12:21:00,SystemResetWarning,0830.1,5.00,000.00,029.8,028.1,000.0,038.4,031.3,27.6,0000.0,0016.70,0007.97,0006.80
2023-06-28 12:22:00,SystemResetWarning,0830.2,4.99,000.00,029.9,028.2,000.0,038.4,031.3,27.4,0000.0,0016.64,0007.91,0006.80
2023-06-28 12:23:00,SystemResetWarning,0830.1,4.99,000.00,029.9,028.3,000.0,038.4,031.4,27.4,0000.0,0016.04,0007.89,0006.80
2023-06-28 12:24:00,SystemResetWarning,0830.1,5.00,000.00,029.9,028.3,000.0,038.4,031.4,27.3,0000.4,0015.91,0007.90,0006.81
2023-06-28 12:25:00,SystemResetWarning,0830.1,5.01,000.00,029.9,028.4,000.0,038.4,031.4,27.3,0002.2,0016.07,0007.88,0006.81
2023-06-28 12:26:00,SystemResetWarning,0830.1,5.01,000.00,029.9,028.4,000.0,038.5,031.4,27.3,0002.7,0016.00,0007.83,0006.80
2023-06-28 12:27:00,SystemResetWarning,0830.1,5.00,000.00,030.0,028.4,000.0,038.5,031.5,27.2,0002.4,0015.57,0007.85,0006.82
2023-06-28 12:28:00,SystemResetWarning,0830.1,5.00,000.00,030.0,028.5,000.0,038.5,031.5,27.3,0002.1,0014.83,0007.91,0006.84
2023-06-28 12:29:00,SystemResetWarning,0830.1,5.00,000.00,030.0,028.5,000.0,038.5,031.5,27.3,0001.9,0014.59,0007.98,0006.85
2023-06-28 12:30:00,SystemResetWarning,0830.2,5.00,000.00,030.0,028.5,000.0,038.5,031.5,27.3,0001.5,0015.03,0008.00,0006.86
2023-06-28 12:31:00,SystemResetWarning,0830.2,5.00,000.00,030.0,028.5,000.0,038.5,031.5,27.2,0001.8,0016.06,0008.07,0006.88
2023-06-28 12:32:00,SystemResetWarning,0830.2,5.00,000.00,030.1,028.6,000.0,038.6,031.6,27.2,0001.9,0016.31,0008.07,0006.88
2023-06-28 12:33:00,SystemResetWarning,0830.2,5.00,000.00,030.1,028.6,000.0,038.6,031.6,27.3,0001.4,0016.28,0008.11,0006.89
2023-06-28 12:34:00,SystemResetWarning,0830.3,5.00,000.00,030.1,028.6,000.0,038.6,031.6,27.2,0001.3,0016.29,0008.08,0006.89
2023-06-28 12:35:00,SystemResetWarning,0830.3,5.00,000.00,030.1,028.6,000.0,038.6,031.6,27.3,0000.7,0016.79,0008.09,0006.89
2023-06-28 12:36:00,SystemResetWarning,0830.2,5.00,000.00,030.1,028.7,000.0,038.6,031.7,27.1,0000.7,0016.80,0008.11,0006.89
2023-06-28 12:37:00,SystemResetWarning,0830.3,5.00,000.00,030.2,028.6,000.0,038.6,031.7,27.1,0000.5,0016.38,0008.12,0006.90
2023-06-28 12:38:00,SystemResetWarning,0830.2,4.98,000.00,030.2,026.8,000.0,038.6,031.8,27.1,0000.6,0016.56,0008.10,0006.89
2023-06-28 12:39:00,SystemResetWarning,0830.2,5.01,000.00,030.2,025.1,000.0,038.5,031.7,27.0,0001.3,0016.62,0008.04,0006.87
2023-06-28 12:40:00,SystemResetWarning,0830.2,5.01,000.00,030.1,024.9,000.0,038.5,031.4,27.1,0001.7,0016.18,0008.01,0006.85
2023-06-28 12:41:00,SystemResetWarning,0830.1,5.01,000.00,029.9,025.3,000.0,038.5,031.1,27.3,0001.7,0015.73,0008.06,0006.86
2023-06-28 12:42:00,SystemResetWarning,0830.1,5.00,000.00,029.9,025.7,000.0,038.5,031.1,27.4,0001.7,0014.85,0008.03,0006.87
2023-06-28 12:43:00,SystemResetWarning,0830.2,5.00,000.00,029.8,026.2,000.0,038.5,031.1,27.4,0001.3,0014.91,0008.03,0006.86
2023-06-28 12:44:00,SystemResetWarning,0830.3,5.00,000.00,029.8,026.6,000.0,038.5,031.1,27.5,0002.1,0015.17,0008.00,0006.85
2023-06-28 12:45:00,SystemResetWarning,0830.2,5.00,000.00,029.8,026.9,000.0,038.4,031.1,27.5,0002.1,0015.79,0008.03,0006.85
2023-06-28 12:46:00,SystemResetWarning,0830.3,4.98,000.00,029.8,027.2,000.0,038.4,031.2,27.5,0002.3,0015.97,0008.04,0006.84
2023-06-28 12:47:00,SystemResetWarning,0830.3,4.99,000.00,029.8,027.4,000.0,038.4,031.2,27.5,0002.6,0015.92,0008.04,0006.85
2023-06-28 12:48:00,SystemResetWarning,0830.2,5.01,000.00,029.8,027.6,000.0,038.4,031.2,27.6,0002.7,0016.14,0008.05,0006.85
2023-06-28 12:49:00,SystemResetWarning,0830.2,4.99,000.00,029.8,027.8,000.0,038.4,031.3,27.7,0002.6,0016.11,0008.08,0006.86
2023-06-28 12:50:00,SystemResetWarning,0830.2,4.99,000.00,029.8,027.9,000.0,038.4,031.3,27.7,0002.4,0016.40,0008.16,0006.87
2023-06-28 12:51:00,SystemResetWarning,0830.2,5.02,000.00,029.8,028.0,000.0,038.4,031.3,27.6,0002.2,0016.98,0008.24,0006.89
2023-06-28 12:52:00,SystemResetWarning,0830.3,5.01,000.00,029.8,028.1,000.0,038.4,031.3,27.8,0002.1,0017.41,0008.20,0006.88
2023-06-28 12:53:00,SystemResetWarning,0830.2,5.00,000.00,029.9,028.2,000.0,038.4,031.4,27.9,0002.3,0017.46,0008.21,0006.88
2023-06-28 12:54:00,SystemResetWarning,0830.2,5.00,000.00,029.9,028.2,000.0,038.4,031.4,28.3,0002.6,0017.81,0008.21,0006.89
2023-06-28 12:55:00,SystemResetWarning,0830.3,5.00,000.00,029.9,028.3,000.0,038.4,031.4,28.4,0002.1,0017.62,0008.24,0006.90
2023-06-28 12:56:00,SystemResetWarning,0830.3,5.00,000.00,029.9,028.3,000.0,038.4,031.4,28.1,0002.3,0016.95,0008.29,0006.90
2023-06-28 12:57:00,SystemResetWarning,0830.3,5.00,000.00,029.9,028.4,000.0,038.5,031.4,28.0,0002.1,0016.72,0008.24,0006.90
2023-06-28 12:58:00,SystemResetWarning,0830.3,5.01,000.00,030.0,028.4,000.0,038.5,031.4,28.1,0001.5,0017.24,0008.26,0006.90
2023-06-28 12:59:00,SystemResetWarning,0830.2,5.00,000.00,030.0,028.5,000.0,038.5,031.5,28.2,0001.4,0017.56,0008.29,0006.90
